Wind_Speed
20 19 19 19 19 20 19 19 19 18 17 18 20 21 21 22 22 22 21 20 20 20 19 19 20 20 20 20 20 21 24 26 28 29 30 30 29 28 29 29 30 31 29 28 30 30 30 32 31 30 30 29 29 29 29 29 30 30 31 30 29 28 26 23 20 19 19 18 18 19 18 17 17 16 15 14 13 13 13 12 12 12 11 9 8
19 18 19 20 20 20 19 19 18 18 18 18 20 21 21 22 22 22 22 21 20 20 20 20 20 21 21 21 21 21 24 25 25 27 28 29 29 29 30 30 31 31 29 27 29 30 31 31 31 31 31 31 31 30 29 30 31 31 31 30 29 28 26 23 20 20 20 19 19 19 18 18 18 17 15 14 14 13 13 13 13 11 10 9 9
18 19 20 20 21 20 19 19 18 18 18 19 20 21 21 22 22 22 22 22 21 21 21 21 21 21 22 22 20 20 23 25 25 25 25 27 28 28 29 30 31 31 30 28 29 30 31 32 33 34 32 32 31 31 30 30 30 31 31 30 30 28 26 24 21 21 21 19 19 19 19 18 18 17 15 14 14 13 13 13 13 11 10 9 9
19 19 21 21 21 20 20 19 18 18 18 19 21 21 21 22 22 22 22 22 22 21 21 21 21 21 21 22 21 22 24 26 25 23 24 26 27 27 26 28 29 30 30 30 29 30 31 32 34 34 33 32 32 31 31 30 28 30 31 30 29 27 26 24 22 22 21 19 19 20 19 18 18 16 15 14 14 14 13 12 12 12 11 10 9
22 21 22 22 21 20 19 19 19 19 19 20 21 22 22 21 21 21 22 23 21 20 20 20 21 21 21 22 24 25 25 25 24 24 25 27 28 30 30 30 30 30 30 31 31 31 31 32 33 34 34 34 33 31 32 31 29 31 32 29 28 28 27 25 23 23 21 19 20 20 19 18 17 16 15 14 14 14 13 12 12 12 11 10 10
22 22 22 21 20 20 20 20 20 19 20 21 22 23 23 22 21 21 21 22 20 19 20 20 20 21 21 23 25 26 24 23 23 23 25 28 30 32 34 34 33 32 31 30 31 31 31 32 32 33 33 34 35 33 31 31 29 30 31 28 27 28 28 26 24 23 21 20 20 20 20 19 18 17 16 15 15 14 13 13 12 13 11 10 10
22 21 21 20 20 20 20 20 19 19 20 22 23 23 23 22 21 21 21 21 20 19 20 20 21 21 22 22 23 25 24 23 23 23 25 28 31 32 33 33 33 33 31 30 30 31 31 32 32 32 33 33 35 35 31 30 29 29 30 28 27 29 29 27 26 25 23 21 21 22 22 20 19 18 16 15 15 14 14 13 13 13 12 11 11
22 21 20 20 20 20 20 20 19 20 21 22 23 24 23 23 22 22 22 21 20 19 19 20 21 22 22 22 23 24 25 25 24 24 25 27 30 33 33 32 31 31 31 30 30 31 32 31 31 31 32 32 35 36 33 30 29 28 30 29 28 30 29 27 27 26 24 23 23 22 22 21 20 19 17 15 15 15 15 14 13 13 12 11 12
23 21 21 20 19 19 19 19 20 21 22 23 24 24 24 23 23 22 21 20 19 19 20 20 22 23 23 23 24 24 25 26 26 26 26 28 30 33 34 34 32 30 31 30 30 32 32 32 31 31 32 32 34 35 29 26 26 25 27 28 28 28 28 27 26 26 25 24 23 22 22 21 20 19 17 16 16 16 16 15 14 13 13 12 12
23 22 21 19 18 19 19 20 20 21 23 25 25 25 24 23 22 21 20 20 19 19 20 21 22 23 24 24 25 25 25 26 27 28 28 29 30 33 34 35 35 33 33 32 31 32 32 33 33 32 32 32 34 33 24 18 21 24 25 26 27 26 27 26 25 26 26 24 22 22 23 22 20 19 17 17 17 17 16 16 15 14 13 13 13
24 22 20 19 18 19 20 20 21 23 24 25 25 25 24 23 21 20 19 19 19 20 21 21 22 24 25 25 26 26 27 27 29 29 29 30 31 32 33 34 36 35 35 35 34 33 33 34 34 33 31 31 33 30 21 15 17 23 26 26 27 26 26 27 26 27 27 25 23 23 23 22 21 19 17 18 18 17 17 17 17 15 13 13 14
24 22 20 19 19 19 20 21 23 24 25 25 25 24 24 23 21 20 20 19 20 20 21 22 23 24 25 26 26 27 27 29 30 30 30 31 31 33 33 33 35 36 36 36 36 36 36 35 34 33 31 30 29 26 23 21 20 24 27 27 27 26 26 28 28 27 26 25 24 24 24 22 21 19 18 19 19 17 17 17 17 15 13 14 15
24 22 20 20 19 20 21 23 24 25 26 25 24 24 24 23 22 21 20 20 20 21 21 23 24 25 25 25 26 26 27 29 30 31 31 31 32 33 34 34 35 37 38 37 36 37 37 35 33 33 31 29 27 25 26 26 24 26 27 26 27 26 25 26 28 27 26 26 25 25 23 21 21 20 19 19 19 18 18 18 17 15 14 15 16
24 22 21 21 21 22 23 24 25 26 25 25 24 24 24 23 23 22 21 21 21 22 22 23 23 24 24 24 24 26 27 29 30 31 32 32 33 34 36 37 36 37 37 37 37 37 36 35 34 33 32 30 26 24 25 24 23 25 27 26 26 25 22 22 25 26 26 25 24 24 23 22 22 20 19 20 21 20 18 18 17 16 16 16 17
25 24 23 23 23 24 24 25 26 26 26 25 24 24 24 24 23 22 22 22 22 23 23 23 23 24 24 23 24 26 28 30 31 32 33 34 35 35 37 38 37 37 37 36 37 37 36 35 34 32 32 31 26 23 22 22 22 24 26 26 26 25 23 22 25 27 27 25 25 25 24 23 22 21 21 21 21 20 19 19 18 18 17 17 17
27 26 24 24 24 25 25 26 26 26 25 25 24 24 24 23 23 23 23 23 23 24 23 24 24 25 25 26 26 27 29 30 32 33 34 36 37 37 38 39 39 39 37 35 35 36 37 35 34 32 31 31 28 23 21 21 22 24 26 27 27 26 26 26 28 28 27 27 27 26 25 23 23 22 22 22 22 21 20 20 20 19 18 18 18
28 26 25 25 25 26 26 26 25 24 24 24 24 24 23 23 23 23 23 24 24 24 24 24 25 26 26 27 27 28 28 29 31 32 34 36 38 39 39 40 41 40 39 37 34 33 35 34 33 32 31 31 30 25 22 22 23 24 27 28 28 28 29 29 30 29 28 28 28 27 26 24 24 23 23 23 24 23 21 21 21 21 20 19 19
28 27 26 26 26 27 27 26 25 24 23 22 23 23 23 23 23 23 24 24 25 25 24 24 24 25 26 27 28 29 29 29 29 30 31 33 35 38 39 39 40 39 39 39 36 33 33 33 33 32 30 30 31 27 24 23 23 25 27 28 29 29 29 30 30 30 29 29 28 27 25 24 25 25 25 24 24 23 22 22 23 23 22 20 19
29 28 28 28 29 29 29 27 26 25 24 24 23 23 23 23 23 24 25 25 26 25 25 24 24 25 27 28 29 29 29 29 28 29 30 31 33 36 37 37 37 36 34 34 35 34 34 33 32 32 30 30 31 29 27 25 24 25 27 28 29 30 29 30 30 30 30 29 28 28 26 25 26 26 25 24 23 24 24 24 25 25 23 21 20
30 30 30 31 32 31 30 28 27 27 27 27 26 25 24 24 24 25 25 26 26 25 25 25 26 27 28 29 28 28 28 28 28 28 29 31 32 35 37 37 37 36 33 33 33 33 34 34 32 31 31 30 31 31 29 27 24 24 26 27 29 30 30 30 31 31 31 31 31 30 28 28 28 27 26 25 27 27 26 26 26 26 24 22 20
32 33 33 34 34 33 31 30 29 28 27 27 27 26 25 24 25 25 26 26 26 26 27 27 29 29 29 29 28 28 28 28 28 28 29 30 31 33 35 36 37 37 36 35 34 32 33 34 32 31 31 31 32 32 32 30 26 25 25 25 27 29 30 31 32 33 33 33 33 32 31 31 29 28 29 29 29 28 27 27 27 27 25 22 19
34 35 35 35 35 34 33 32 30 28 27 27 26 26 25 25 25 26 26 26 27 27 28 28 29 29 29 29 29 28 28 28 28 28 28 29 30 32 33 33 34 36 37 36 35 33 32 31 30 30 30 30 32 33 33 32 30 27 26 26 28 28 29 30 32 32 33 33 32 32 33 32 30 30 30 30 29 28 28 28 28 27 25 22 20
36 35 36 36 36 35 34 33 30 28 27 26 26 26 26 26 26 26 26 27 27 27 28 28 28 28 28 28 29 29 29 29 29 28 28 29 29 30 30 31 32 34 35 36 36 34 32 31 31 31 31 31 30 31 33 33 32 30 28 28 29 29 29 30 30 31 33 33 32 32 33 33 32 30 30 29 29 29 29 29 28 27 24 22 22
36 36 37 37 37 36 34 32 30 27 26 26 26 26 27 27 27 27 27 27 28 28 28 28 27 27 27 28 28 29 29 29 29 29 28 28 29 29 29 29 29 31 33 35 36 34 32 31 31 31 32 32 31 30 29 31 33 32 30 30 29 29 28 28 29 30 32 33 33 33 33 33 33 31 30 31 31 30 30 30 29 26 23 22 23
36 37 37 37 37 35 33 30 28 26 25 26 26 27 27 27 28 28 28 28 29 28 28 28 27 27 27 28 29 29 29 29 29 29 28 28 28 29 29 28 28 29 30 32 35 34 32 31 29 30 32 33 33 31 27 28 31 31 31 31 30 30 29 29 29 29 31 33 34 34 34 34 35 33 32 33 31 30 30 31 30 26 23 24 25
37 37 37 36 35 32 30 28 27 26 26 26 27 27 28 28 29 29 29 29 28 28 28 28 27 28 28 29 29 29 29 29 29 29 29 28 28 29 29 28 27 29 29 29 31 32 30 29 29 31 31 31 33 33 28 26 27 28 31 32 32 31 30 31 30 29 30 33 34 34 34 36 37 35 33 33 33 32 31 31 30 27 26 29 28
36 36 35 34 32 29 28 28 27 27 27 27 28 28 28 29 29 29 29 28 28 28 28 29 29 29 30 30 29 29 29 29 29 29 29 29 29 29 29 28 27 28 28 28 28 28 26 27 29 31 31 30 32 34 32 28 27 27 30 32 34 34 32 31 31 31 32 34 35 35 35 38 39 37 35 34 33 33 32 32 32 29 30 32 29
33 33 32 31 29 28 28 28 28 28 28 28 29 29 29 29 30 30 29 29 29 29 30 31 31 31 31 30 29 29 28 28 29 29 29 29 29 30 30 29 27 27 28 28 27 26 24 24 28 31 31 28 29 34 34 31 29 29 29 30 33 35 33 32 31 32 33 34 36 37 37 39 40 39 37 35 33 34 34 34 33 30 30 32 30
30 30 29 29 29 28 28 28 29 29 29 29 30 30 30 31 31 31 31 30 31 31 32 33 33 33 32 31 30 29 29 29 29 29 30 30 30 30 31 32 29 27 27 28 28 27 25 24 25 29 30 27 26 31 34 32 31 31 29 28 31 34 34 34 33 33 33 34 36 37 39 40 39 39 39 37 36 35 35 34 33 30 30 31 30
28 28 28 28 28 28 29 29 30 30 30 30 31 31 32 32 33 32 32 32 33 33 33 33 33 34 33 32 32 32 32 32 31 30 31 31 31 30 31 33 32 29 28 28 28 27 27 25 25 26 27 26 26 29 32 31 31 33 30 28 29 31 33 35 36 35 35 36 37 38 40 40 39 39 41 41 38 36 35 34 33 31 31 32 32
27 27 27 28 28 29 30 30 31 31 32 32 32 33 34 34 34 33 33 34 34 35 35 35 35 34 34 34 34 35 35 35 34 33 33 33 33 31 31 32 33 32 30 29 28 28 27 27 27 26 25 25 25 28 30 30 30 33 32 30 29 29 30 33 34 34 34 34 35 37 39 40 40 40 42 41 38 35 36 35 34 33 33 32 32
27 27 27 28 29 29 30 31 32 32 33 33 34 34 35 35 35 35 36 36 37 37 37 36 36 36 35 35 35 35 36 35 35 35 35 35 35 34 32 31 32 32 31 30 29 28 28 28 28 27 27 25 25 26 28 28 29 30 31 32 32 30 29 30 31 32 34 33 34 36 38 39 39 39 39 39 38 37 37 37 37 37 35 33 33
27 28 28 29 29 30 31 32 32 33 33 34 35 35 35 36 37 37 38 38 38 38 38 38 38 37 37 36 36 36 36 36 37 37 36 36 36 35 34 32 31 31 31 31 31 30 29 29 28 28 28 28 28 27 26 28 30 30 29 31 32 30 29 29 30 32 33 33 34 37 39 39 39 39 38 38 39 40 40 40 39 39 37 35 35
28 29 30 30 31 32 32 33 33 33 34 34 35 35 36 36 37 38 38 38 39 39 39 39 40 39 39 39 38 38 38 38 38 38 37 36 36 36 35 33 32 31 31 31 31 31 31 30 29 29 28 28 29 29 28 29 31 30 29 29 30 30 29 29 30 31 32 34 37 39 38 38 38 38 38 39 40 41 41 41 40 39 38 37 37
30 31 32 32 32 33 33 34 34 34 34 35 35 35 35 36 36 37 38 38 39 40 41 41 42 42 42 41 41 40 40 40 39 38 36 34 33 35 35 35 33 33 32 31 31 32 32 32 31 31 29 29 29 29 30 31 31 31 30 29 30 31 30 30 31 32 32 35 39 39 37 37 38 39 40 42 43 41 41 42 41 39 38 37 38
31 32 33 33 33 33 33 33 34 34 34 34 34 34 35 36 37 38 39 40 41 42 42 43 43 43 43 43 42 42 41 41 40 39 38 36 35 34 35 36 35 34 34 33 32 31 32 33 33 32 32 31 30 29 30 31 32 32 32 31 31 31 31 31 32 33 34 37 39 39 38 38 41 42 42 41 41 41 41 41 41 40 39 38 38
31 31 32 32 33 33 33 32 33 33 33 33 34 35 35 36 37 38 38 39 40 41 42 42 43 43 44 44 43 43 43 43 42 42 41 40 38 36 35 36 36 36 35 34 33 32 32 33 33 34 33 33 32 31 30 31 32 32 32 32 32 33 32 32 32 34 36 38 38 40 41 38 38 40 42 40 38 39 40 38 38 40 40 39 40
31 32 32 32 33 33 32 32 33 33 33 34 34 35 36 36 37 38 38 39 39 40 40 41 42 43 43 44 44 44 44 43 43 43 42 41 40 38 37 36 36 36 35 35 34 33 33 32 33 34 34 34 34 33 33 32 32 32 32 31 32 34 34 33 33 35 37 37 37 40 43 40 37 38 41 40 40 41 42 40 39 41 41 40 42
32 32 32 33 33 33 34 34 35 35 35 35 35 36 36 37 38 39 40 41 41 42 42 43 43 44 45 45 46 46 46 46 46 46 45 44 44 43 42 40 39 38 37 36 35 35 35 34 33 33 34 34 35 35 34 34 34 33 32 31 32 35 36 34 34 36 37 39 41 42 43 42 41 40 41 42 42 42 45 47 47 46 44 41 42
31 32 32 32 32 33 33 34 34 35 35 35 36 37 38 39 40 40 41 42 43 44 45 45 46 47 47 48 49 49 49 50 50 50 50 50 49 48 48 46 44 42 42 40 39 37 37 37 36 35 34 34 34 35 35 35 35 34 33 32 33 36 36 35 36 37 38 39 42 43 43 43 43 43 43 43 42 41 43 47 49 46 42 41 42
30 30 30 30 30 30 31 31 32 33 34 35 36 37 38 39 40 41 42 43 44 45 46 47 48 49 50 51 51 52 53 53 53 53 53 53 53 52 51 50 49 47 45 45 44 42 40 38 38 37 36 34 34 34 35 36 36 35 35 34 34 36 37 37 37 38 38 38 40 43 45 45 43 43 44 45 43 42 43 46 48 46 44 43 44
27 27 27 27 27 28 28 29 31 32 33 34 35 36 37 38 39 40 42 43 44 45 46 47 48 49 50 51 52 53 54 54 54 55 55 55 55 55 54 53 51 50 48 46 46 46 44 42 40 39 39 38 36 35 35 36 36 36 35 35 36 37 39 39 38 38 39 40 41 43 46 47 45 43 44 45 45 45 45 46 48 49 47 46 45
25 25 25 26 26 27 28 29 30 31 32 33 34 35 36 37 38 39 41 42 43 44 45 46 47 48 50 51 52 52 53 54 54 55 55 55 55 56 56 55 54 52 50 48 47 47 46 44 42 40 40 40 39 38 37 36 37 36 36 36 37 38 41 42 40 41 42 43 44 45 46 48 47 43 42 44 45 46 46 44 45 46 47 47 46
23 24 24 25 26 26 27 28 29 30 30 31 32 33 35 36 37 39 40 41 43 44 45 46 48 49 50 51 52 53 54 54 55 55 56 56 56 56 56 56 56 54 53 51 49 47 46 46 44 42 41 41 41 40 39 38 38 37 36 37 37 38 41 43 41 43 45 44 45 48 49 50 49 45 43 44 45 46 45 44 44 45 46 45 44
22 22 23 23 24 24 25 26 26 27 29 30 31 32 34 35 36 37 38 40 41 43 44 46 47 49 50 51 52 53 54 55 56 56 56 56 56 56 56 56 56 56 55 54 51 49 47 46 45 44 42 41 40 40 41 40 40 39 38 38 37 37 39 42 42 43 45 46 47 51 52 51 49 46 45 45 46 46 45 43 43 43 42 41 40
19 20 20 21 21 22 23 24 25 26 27 28 29 29 30 31 31 33 34 35 37 38 40 42 44 45 47 49 50 52 53 54 55 56 57 57 57 56 56 56 55 55 55 55 53 51 49 47 46 45 44 42 40 40 40 41 41 40 40 40 39 36 37 40 44 45 45 47 49 51 53 53 51 48 47 46 44 44 43 43 42 41 40 40 39
17 18 19 19 20 21 22 22 23 23 22 22 22 23 23 24 26 27 29 30 32 33 35 36 38 40 41 43 45 47 49 51 52 53 54 55 56 56 55 55 55 54 54 54 54 52 50 48 47 45 45 44 42 40 40 40 40 40 41 42 41 38 35 37 41 42 43 45 47 49 50 51 51 49 47 46 43 40 40 41 41 40 38 37 36
17 17 18 18 18 18 18 17 16 16 16 16 17 18 20 21 22 24 25 27 28 30 31 32 33 34 36 37 38 40 42 43 45 47 48 49 51 51 52 52 52 52 52 52 52 52 51 49 48 46 45 44 44 42 41 40 39 40 41 41 41 39 36 35 37 41 43 45 45 45 45 46 45 44 43 43 42 41 40 40 39 38 38 37 37
15 15 15 14 13 12 11 11 11 12 13 14 16 17 19 20 21 23 24 26 27 28 30 31 32 33 33 34 34 35 36 37 38 39 40 41 43 44 45 46 47 48 49 50 50 50 50 50 48 47 45 44 44 44 42 41 40 40 41 42 40 39 38 38 38 40 43 43 43 43 42 41 40 40 41 41 42 43 45 44 42 41 40 39 38
12 11 10 8 7 7 7 9 10 12 13 15 16 17 19 20 21 23 24 26 27 29 30 32 33 34 35 34 34 34 34 34 35 36 36 36 36 37 38 39 40 41 43 44 46 47 48 48 48 47 45 44 44 44 43 42 41 40 41 43 42 39 39 40 40 40 40 39 39 41 40 40 40 41 41 42 41 42 44 44 42 40 39 39 39
7 6 4 4 5 6 8 10 11 13 15 16 17 18 19 20 21 22 24 26 28 30 31 33 35 36 37 37 36 35 34 33 34 34 35 35 35 34 34 34 35 36 38 39 40 42 43 45 45 45 45 44 44 43 44 43 43 42 42 43 42 40 39 40 41 40 38 36 36 39 40 42 43 44 44 44 43 42 43 43 42 42 43 43 44
Wind_Direction
252 252 255 256 255 253 253 255 255 261 269 275 281 283 284 285 288 291 293 296 297 295 294 294 296 297 298 297 296 298 301 294 285 281 278 276 279 282 285 287 289 290 289 289 288 289 291 291 291 290 289 287 282 280 277 271 267 263 261 260 259 261 260 256 255 252 249 249 252 253 255 258 261 261 260 261 263 266 269 273 278 287 297 304 308
251 253 254 252 252 252 253 256 258 263 270 275 279 281 284 287 290 290 292 294 295 295 295 297 298 297 296 295 292 298 305 299 286 279 276 274 276 281 285 288 289 289 288 290 289 287 288 287 288 290 290 287 285 284 279 273 266 258 256 257 255 256 257 255 254 250 245 245 248 251 253 256 256 255 254 255 258 262 266 271 277 285 292 298 303
248 248 249 250 252 254 255 259 264 267 272 277 280 283 286 288 289 289 291 293 293 295 296 297 297 295 294 293 292 299 308 306 294 284 281 279 280 286 293 293 288 286 287 290 289 287 287 286 287 289 290 288 287 286 279 276 269 254 248 253 253 253 254 252 250 246 242 243 248 250 252 254 254 253 251 252 255 258 261 268 275 281 286 290 295
244 244 247 251 254 257 259 263 268 271 275 280 283 285 286 285 286 287 289 291 292 294 296 297 296 294 292 290 291 295 300 305 304 298 292 287 286 290 295 296 291 287 288 289 289 288 287 286 286 288 290 290 289 286 280 279 273 252 241 245 249 250 251 248 245 241 238 242 246 247 249 252 253 251 249 251 255 256 259 267 273 277 281 284 289
240 242 246 252 257 261 265 267 270 275 279 283 285 286 286 284 284 286 287 289 291 292 293 294 294 291 289 288 289 293 296 300 303 300 294 289 288 288 290 294 294 292 290 289 289 289 288 286 286 287 289 291 290 287 281 279 275 257 242 239 244 248 249 247 243 237 235 240 244 244 246 250 251 249 249 252 254 255 258 265 270 273 277 280 283
240 244 248 254 260 263 267 269 272 278 282 285 287 287 286 285 284 284 284 285 286 286 286 287 287 286 285 286 288 293 296 297 298 297 294 292 289 288 288 292 293 292 290 290 288 286 288 287 286 287 289 291 291 289 283 278 276 262 246 239 244 248 247 245 242 235 231 236 241 241 242 247 251 251 251 251 253 257 260 263 268 271 273 277 280
241 245 250 254 259 264 267 271 274 279 284 285 286 286 285 284 283 282 281 282 283 283 282 282 283 284 284 286 288 292 295 296 296 294 292 291 289 288 288 290 292 291 289 290 290 286 286 287 288 289 289 291 292 290 285 277 273 264 249 241 243 245 243 244 242 233 229 232 236 238 240 244 248 248 250 252 254 259 260 261 266 269 272 277 276
240 243 249 254 260 266 269 273 276 280 282 284 284 283 282 281 281 282 281 282 282 283 282 282 284 286 288 289 290 292 295 296 294 292 289 288 287 288 287 288 291 292 290 289 288 286 285 285 287 288 288 290 291 289 282 274 269 260 249 241 240 240 239 242 240 233 230 231 232 235 239 243 244 244 248 252 254 259 260 259 261 264 268 272 272
240 242 247 254 260 265 269 273 277 280 282 284 284 283 282 282 282 283 283 283 284 285 285 287 289 290 292 293 293 294 294 294 294 292 289 286 286 286 286 287 288 290 291 289 288 286 285 286 286 286 287 289 291 288 278 269 263 252 243 239 237 237 237 240 238 233 232 233 232 234 237 240 242 243 245 248 250 255 258 258 257 258 261 264 269
241 244 247 252 257 262 268 274 277 281 283 284 284 283 283 283 283 284 284 284 285 286 287 289 292 293 294 295 295 295 294 293 293 291 289 287 286 286 286 287 288 287 288 288 289 288 289 291 288 287 289 290 294 289 271 262 259 243 236 237 234 234 237 239 235 232 235 235 234 236 237 238 241 241 241 245 248 251 255 256 255 256 260 264 267
240 243 246 250 256 263 270 275 278 280 281 281 281 282 283 284 285 285 284 285 286 288 289 290 291 292 293 294 293 293 292 291 291 290 290 289 288 287 286 287 287 286 284 283 285 287 290 294 291 289 289 289 296 290 268 264 259 239 233 235 233 233 235 238 234 229 233 235 236 237 236 237 240 241 241 244 248 250 253 255 255 255 259 264 266
238 241 245 251 259 266 272 277 279 280 280 280 280 281 282 283 285 287 287 287 288 288 289 290 291 291 291 291 291 291 290 290 290 290 291 291 290 289 287 286 286 285 284 281 281 283 286 291 291 290 287 285 292 292 283 282 267 242 234 233 234 236 239 242 236 228 232 237 236 235 233 233 237 240 242 244 247 250 252 253 254 256 260 263 264
237 241 246 253 259 266 273 278 280 281 281 280 280 281 282 284 286 288 288 288 288 288 289 289 290 291 290 290 290 289 288 287 288 289 291 292 292 291 289 288 287 286 285 282 281 282 282 285 287 286 284 283 285 290 291 286 267 246 237 232 235 240 245 243 231 227 236 238 234 234 234 234 236 239 241 242 246 250 249 249 252 256 260 261 261
238 241 247 253 258 265 273 277 280 281 280 279 280 281 282 283 284 286 286 288 289 289 289 290 291 292 292 292 290 289 286 285 286 287 289 290 291 290 288 287 287 287 286 283 282 281 281 280 281 282 281 279 280 284 288 284 265 246 237 234 236 240 245 239 228 232 239 237 235 237 237 237 238 237 239 243 247 248 248 248 250 251 253 256 259
238 242 248 253 259 265 272 278 280 280 279 278 279 279 280 281 283 285 287 289 290 290 291 292 293 294 295 295 293 289 287 287 287 286 286 287 287 288 287 287 286 287 288 288 284 280 278 277 277 277 276 275 276 279 283 281 264 247 238 237 238 239 241 238 235 237 238 237 240 240 237 237 238 235 238 246 248 247 248 249 248 250 250 253 257
240 245 250 255 261 266 271 278 281 280 278 276 276 276 277 279 282 285 287 288 289 290 292 293 295 296 297 296 294 291 290 289 288 286 284 285 286 287 288 289 287 286 288 291 289 280 275 275 275 274 273 272 271 271 276 274 262 250 243 241 240 239 239 240 240 240 239 241 244 241 237 236 237 237 237 243 248 249 249 248 248 251 250 250 253
244 249 254 259 264 267 271 277 280 279 276 274 272 272 274 277 280 283 285 286 287 288 291 293 295 297 297 296 295 293 292 290 288 286 284 284 285 287 289 289 290 289 286 287 289 282 274 273 276 275 272 270 268 265 266 267 260 252 246 243 241 239 240 241 243 243 242 244 243 239 237 237 239 239 235 236 244 249 248 248 249 249 248 248 249
248 254 259 264 266 268 270 275 278 277 275 271 269 270 271 275 278 280 283 284 285 286 288 291 293 295 296 296 296 296 294 292 290 289 287 286 286 287 289 290 290 291 288 283 281 280 278 275 276 277 273 268 265 262 260 262 261 253 246 243 242 242 243 245 245 244 243 244 244 241 240 241 242 242 240 239 244 247 248 249 250 249 248 248 247
252 257 263 265 267 268 269 272 276 274 271 269 269 270 272 274 276 278 280 281 282 285 287 289 291 293 295 295 296 297 296 295 293 292 291 290 289 289 289 291 291 291 292 286 278 277 281 277 274 276 274 266 263 261 258 258 259 255 247 242 243 244 244 246 246 244 242 243 247 249 246 242 242 243 241 243 248 249 249 250 251 251 252 248 247
256 260 263 265 267 269 268 271 275 273 270 268 269 270 271 273 275 276 277 278 280 282 284 287 289 292 294 294 296 297 296 296 295 295 295 293 292 291 290 291 292 292 293 292 285 279 279 277 273 274 273 266 262 261 259 256 257 257 252 246 246 245 244 246 246 244 245 247 251 252 248 242 240 240 239 243 249 250 249 250 249 252 253 247 247
258 261 263 265 268 270 269 271 275 274 271 269 269 271 271 272 273 275 277 278 279 281 283 286 289 292 293 294 295 296 296 296 297 297 298 297 295 294 293 292 292 292 292 291 288 282 277 275 272 271 271 267 262 261 260 257 255 256 256 252 250 247 245 246 247 246 247 250 251 250 245 241 239 238 240 243 246 247 249 248 248 250 250 244 246
258 261 263 266 269 271 271 273 274 272 269 268 269 271 272 272 273 274 276 278 279 281 283 286 289 290 291 292 293 294 294 295 296 297 299 300 299 298 297 296 293 293 292 290 288 283 276 272 266 264 266 264 262 261 259 258 256 255 256 253 250 249 248 249 249 249 249 249 251 249 245 242 240 238 240 241 244 246 248 247 247 248 246 244 248
257 260 263 267 270 271 272 273 273 270 268 268 269 270 270 271 272 273 275 276 277 279 281 284 286 287 288 289 291 293 293 294 295 297 299 300 302 302 301 300 297 295 294 292 289 284 277 271 264 258 258 257 258 259 257 257 257 256 256 254 251 250 251 251 250 250 250 249 249 249 246 244 242 238 236 240 244 247 247 247 247 245 244 244 250
257 260 264 268 269 270 271 271 270 268 268 269 269 269 269 269 270 271 273 274 276 278 281 282 283 283 285 288 290 292 293 294 295 297 299 300 302 303 303 302 300 298 295 292 290 284 275 270 266 261 258 256 256 257 257 256 255 254 256 256 253 251 249 251 252 251 251 251 249 248 246 244 239 234 235 241 244 245 246 248 247 245 245 247 254
258 262 265 266 266 267 267 267 267 267 267 268 268 267 267 267 269 271 272 274 277 279 280 280 280 281 284 288 291 292 293 294 295 296 297 299 300 302 303 303 302 301 298 294 291 285 273 267 265 263 259 256 253 252 254 254 251 251 254 253 253 252 250 250 251 251 250 249 248 248 246 242 237 232 233 239 240 241 245 248 247 245 248 254 259
259 261 261 262 262 263 263 264 265 266 266 266 265 265 265 266 268 270 272 275 277 278 279 278 278 280 285 288 291 292 292 293 294 295 296 297 298 300 302 304 304 303 302 298 294 289 277 267 264 263 260 256 252 251 252 252 248 248 251 251 250 251 251 250 250 249 248 249 248 246 243 241 238 233 233 237 240 240 243 245 244 244 249 255 259
256 256 257 257 258 259 260 263 265 265 266 265 264 264 264 265 268 270 272 274 276 276 276 276 278 281 285 287 289 290 291 291 292 293 294 295 297 299 300 303 304 304 304 302 299 296 285 268 261 259 258 255 252 251 252 250 247 248 249 249 248 248 249 250 248 247 248 250 249 246 244 241 237 235 236 239 240 240 241 242 242 243 251 257 258
250 251 252 254 256 258 260 263 264 264 264 263 263 263 263 264 266 269 271 272 273 274 274 276 278 280 282 284 285 286 287 288 289 290 292 294 296 298 299 301 303 304 305 304 302 301 293 275 263 256 253 256 256 251 248 247 246 246 247 249 249 247 247 247 247 246 247 249 249 247 245 242 239 238 238 236 235 236 239 241 242 243 250 256 258
246 248 251 254 257 260 262 263 263 263 263 262 262 262 262 264 266 268 270 271 272 273 274 276 278 279 281 281 281 282 283 284 285 286 288 290 292 295 297 298 300 301 303 304 302 302 297 286 274 262 256 263 264 250 244 247 246 243 246 251 249 245 246 248 248 248 248 248 248 247 246 243 239 237 236 233 233 235 238 239 240 243 247 251 256
245 248 251 254 257 260 261 262 262 262 262 261 261 262 263 264 266 268 269 271 272 273 274 275 277 278 279 280 281 282 283 282 282 281 283 285 287 289 293 294 296 297 299 300 300 300 298 292 287 276 267 268 265 251 248 253 251 246 249 252 247 245 247 246 247 250 251 249 248 245 244 242 238 235 234 234 236 239 240 239 239 244 248 252 256
246 249 251 254 256 258 259 260 261 262 262 262 262 263 263 264 266 267 269 270 272 273 274 275 276 276 277 279 281 284 284 283 281 280 280 281 283 284 287 290 291 292 293 295 296 297 296 293 290 287 280 273 266 258 258 261 257 252 251 250 249 249 248 244 245 249 252 250 246 243 241 240 238 236 235 237 239 238 238 239 242 246 250 251 254
247 249 251 254 255 257 259 260 261 262 262 263 263 264 264 265 266 267 269 271 272 273 273 274 275 276 277 279 281 283 283 283 283 282 281 281 281 281 282 285 287 287 288 289 291 292 293 292 289 288 286 280 272 268 269 270 266 259 253 249 250 251 250 248 245 244 248 250 248 247 245 240 236 235 235 237 239 237 237 241 245 248 250 252 253
247 250 253 255 257 259 261 262 263 264 264 264 265 265 265 266 267 269 271 273 273 273 273 274 275 277 278 279 280 281 282 283 284 284 283 281 280 280 280 280 282 284 285 286 286 287 288 289 288 286 285 283 279 277 279 279 275 271 262 255 253 252 253 253 248 244 246 248 249 251 248 240 236 237 238 241 242 240 240 243 246 248 250 253 255
248 251 253 257 259 261 263 264 265 266 267 267 268 268 268 268 270 271 273 274 274 274 274 275 276 277 278 278 278 279 280 282 283 284 284 282 281 279 279 278 277 279 281 283 283 283 283 285 286 285 284 283 281 281 280 280 279 279 274 268 263 261 261 260 254 249 249 249 250 250 245 238 235 238 242 246 246 243 242 244 246 249 252 253 254
250 252 254 257 259 261 262 264 266 268 269 270 270 270 270 271 271 273 274 275 275 276 276 276 277 278 279 279 279 279 279 280 280 281 282 281 280 279 279 278 277 277 278 280 280 279 279 279 281 282 282 281 281 280 279 278 279 279 278 275 271 268 266 263 258 254 252 250 249 245 240 237 239 242 245 247 246 243 242 244 246 248 250 252 253
252 254 255 257 258 259 262 264 267 269 270 270 270 270 271 272 273 274 274 275 275 276 276 277 278 279 279 280 279 279 279 279 278 278 278 278 277 277 278 278 278 278 278 278 278 276 275 275 276 278 279 279 279 279 278 278 277 277 277 276 275 271 267 263 260 256 252 250 246 240 237 241 244 243 242 242 242 241 241 243 246 246 247 249 250
254 255 256 256 257 258 261 264 267 268 269 270 270 271 273 274 275 276 276 277 277 277 278 278 278 278 278 278 279 279 278 278 278 277 277 277 276 276 275 276 277 278 278 278 277 276 274 272 272 274 275 276 277 277 277 277 276 276 276 275 274 272 267 263 261 257 254 253 248 240 238 242 246 243 240 240 241 241 238 239 243 244 243 245 247
258 258 259 259 259 259 262 264 267 268 270 271 273 274 275 276 276 277 278 278 279 279 280 279 279 279 278 279 279 279 279 279 278 278 277 277 277 276 274 273 274 276 277 277 277 277 275 273 271 271 271 272 273 274 274 275 275 275 275 274 272 270 266 263 262 259 255 255 253 245 241 242 244 244 244 246 247 244 239 235 238 241 241 242 246
261 262 262 263 263 263 264 266 268 270 272 274 276 277 277 277 277 278 278 279 279 280 280 281 281 280 280 280 280 280 280 280 279 279 279 279 278 278 277 275 274 275 276 277 277 278 277 275 272 270 269 270 270 271 271 272 273 273 273 273 271 268 265 262 259 258 255 255 255 250 243 240 242 244 247 249 250 249 244 237 237 240 242 243 247
263 264 265 266 266 266 266 268 270 273 274 276 277 278 279 279 279 279 279 280 280 280 280 280 280 280 280 280 280 280 280 280 280 280 280 280 280 280 280 279 278 276 276 277 277 277 277 277 275 272 270 269 269 269 269 269 270 271 271 271 269 268 267 263 258 256 256 256 256 252 244 240 242 245 246 247 249 251 247 242 240 241 242 245 247
264 265 267 268 268 269 270 271 273 274 276 277 278 279 280 281 281 282 282 282 282 282 282 281 281 281 281 281 281 281 281 281 282 281 281 281 281 281 281 281 280 278 277 276 276 277 276 276 275 274 272 270 268 267 267 267 268 268 268 268 267 266 266 263 258 256 258 258 258 253 246 242 244 246 246 247 248 249 248 246 245 245 245 246 248
264 266 268 269 270 272 273 274 276 277 278 279 280 281 282 283 284 285 285 285 285 284 284 284 283 283 282 282 282 282 282 283 283 283 282 282 282 282 281 281 281 280 279 276 275 276 276 276 275 274 273 271 268 267 266 266 266 266 266 266 266 265 265 263 259 256 257 257 256 255 249 244 245 248 249 249 249 248 248 248 248 249 248 248 248
265 267 268 270 272 273 275 277 278 280 281 283 284 285 286 286 287 288 288 288 288 288 287 286 286 285 284 284 283 283 283 283 282 282 282 282 282 282 282 281 281 281 280 279 276 275 276 276 274 273 271 270 269 267 265 264 264 265 265 264 264 265 265 263 257 250 249 247 246 248 249 246 244 249 253 252 250 250 249 248 249 250 250 249 249
266 268 270 272 274 276 278 280 282 284 285 287 288 289 290 291 291 292 292 291 291 290 290 289 288 287 286 285 284 284 283 283 283 282 282 281 281 281 280 280 281 280 280 280 278 276 275 274 274 273 270 268 267 266 265 264 263 264 264 264 264 265 265 264 257 248 246 246 244 244 247 245 243 248 254 254 252 251 250 249 250 251 252 253 253
269 271 273 276 278 280 283 285 287 289 290 292 293 293 293 293 293 293 293 293 292 291 291 289 288 287 286 285 284 283 282 282 281 281 281 280 280 279 279 279 279 279 279 279 279 278 276 274 273 272 271 268 266 265 264 263 262 262 264 265 266 266 266 264 258 250 246 246 246 246 246 244 242 245 251 254 253 253 251 249 249 249 251 255 257
270 273 275 278 282 285 288 290 291 293 293 294 294 295 295 297 297 298 298 298 298 297 295 294 292 290 288 286 284 283 281 280 279 278 278 278 278 277 277 277 277 277 277 277 277 277 277 275 273 272 271 269 267 264 262 262 261 261 262 263 265 266 263 260 256 252 249 248 249 248 247 245 244 247 250 252 253 253 250 247 247 250 254 257 257
272 275 279 283 285 288 289 290 292 293 295 297 300 303 306 309 311 312 312 312 311 310 308 306 304 300 297 294 291 288 285 282 280 279 278 277 276 276 275 275 274 274 274 275 275 275 274 274 273 272 271 270 268 265 262 260 259 258 259 262 264 265 263 259 254 251 250 250 251 251 249 248 248 250 250 250 249 248 247 247 250 253 254 254 253
274 278 281 283 285 286 289 292 297 302 308 314 319 322 324 326 327 328 328 327 327 326 324 322 319 316 312 308 303 299 295 291 287 284 282 280 278 277 276 275 274 272 272 271 272 272 272 271 271 270 269 268 267 266 262 259 257 255 255 258 261 261 260 258 254 251 250 251 252 252 250 248 248 249 248 246 244 244 246 249 252 254 254 253 253
274 276 278 280 284 289 297 307 315 322 326 329 330 332 333 334 336 337 339 340 340 340 340 338 336 333 329 325 319 314 309 304 300 295 291 288 285 282 280 278 275 273 271 270 269 269 269 269 268 267 266 265 265 265 263 260 257 254 252 253 255 255 254 252 252 253 254 255 254 251 248 246 247 247 245 241 238 239 242 246 250 253 254 254 254
267 270 274 282 294 307 318 324 327 328 329 330 331 332 335 338 341 344 347 349 350 351 352 352 352 349 346 341 335 328 321 316 312 308 304 301 297 292 288 285 281 278 274 271 269 268 267 267 266 265 263 262 261 261 260 258 256 253 251 251 252 252 251 250 250 250 253 255 254 250 247 245 245 245 242 238 235 236 238 240 244 249 250 250 249
258 266 281 299 315 323 326 327 328 329 329 329 331 333 337 341 344 348 351 353 354 356 357 358 358 358 356 352 347 340 332 325 320 316 313 310 307 304 299 294 290 285 280 275 271 268 266 265 264 263 261 260 258 257 256 255 254 252 250 250 250 249 249 249 249 248 250 251 250 248 247 245 243 242 241 240 239 239 239 240 244 248 250 250 250
Height
5820 5822 5824 5825 5826 5826 5827 5827 5828 5828 5828 5827 5826 5826 5825 5825 5825 5825 5825 5825 5824 5824 5823 5823 5823 5823 5822 5822 5821 5820 5819 5817 5816 5815 5815 5814 5813 5812 5812 5811 5810 5810 5811 5812 5811 5811 5811 5809 5808 5807 5807 5806 5806 5807 5807 5806 5806 5806 5806 5807 5807 5807 5807 5807 5807 5807 5808 5810 5810 5811 5811 5812 5812 5813 5814 5814 5815 5815 5815 5815 5816 5815 5815 5814 5814
5819 5821 5822 5822 5823 5824 5825 5826 5826 5826 5826 5825 5824 5824 5824 5823 5823 5823 5823 5823 5822 5822 5821 5821 5821 5821 5820 5819 5818 5817 5816 5814 5813 5813 5812 5811 5810 5810 5809 5809 5808 5807 5807 5808 5808 5807 5807 5806 5805 5805 5804 5803 5803 5804 5805 5804 5803 5803 5804 5805 5805 5805 5805 5805 5806 5806 5806 5807 5808 5809 5810 5810 5811 5811 5812 5812 5813 5813 5814 5814 5814 5814 5814 5813 5813
5818 5819 5819 5820 5821 5822 5823 5824 5824 5824 5823 5823 5822 5822 5822 5822 5821 5821 5821 5821 5820 5820 5820 5819 5819 5818 5818 5817 5816 5816 5814 5812 5811 5810 5809 5807 5807 5807 5807 5806 5806 5804 5804 5805 5805 5804 5804 5803 5802 5802 5801 5800 5800 5801 5801 5801 5801 5800 5801 5802 5802 5802 5803 5803 5804 5804 5804 5805 5806 5807 5808 5809 5810 5810 5810 5811 5811 5812 5812 5813 5813 5813 5812 5812 5812
5816 5817 5817 5818 5819 5819 5820 5821 5821 5821 5821 5820 5820 5820 5820 5820 5820 5819 5819 5818 5818 5818 5817 5817 5816 5816 5816 5815 5814 5813 5813 5811 5809 5807 5806 5805 5804 5804 5805 5804 5804 5802 5801 5801 5802 5801 5801 5800 5799 5797 5797 5797 5797 5798 5797 5797 5798 5798 5799 5799 5799 5799 5800 5801 5802 5801 5802 5804 5805 5805 5807 5808 5808 5809 5809 5810 5810 5810 5811 5811 5811 5811 5811 5811 5811
5814 5815 5815 5816 5816 5817 5818 5819 5818 5818 5818 5818 5818 5818 5818 5818 5818 5818 5817 5816 5816 5816 5815 5815 5814 5813 5813 5812 5811 5811 5810 5809 5808 5806 5805 5803 5802 5802 5802 5802 5801 5799 5798 5798 5799 5799 5798 5797 5796 5794 5794 5793 5793 5794 5793 5793 5795 5795 5795 5795 5796 5797 5798 5799 5800 5800 5801 5802 5802 5804 5805 5806 5807 5807 5808 5809 5809 5809 5809 5809 5810 5810 5810 5810 5810
5812 5813 5813 5814 5814 5815 5816 5816 5816 5815 5815 5815 5815 5815 5816 5816 5816 5816 5815 5814 5814 5814 5813 5812 5812 5811 5811 5810 5809 5808 5807 5807 5806 5805 5804 5802 5801 5799 5799 5798 5798 5796 5796 5795 5795 5795 5795 5794 5793 5792 5791 5790 5790 5790 5790 5790 5791 5792 5792 5791 5792 5794 5796 5797 5798 5798 5798 5799 5800 5801 5803 5804 5805 5805 5806 5807 5807 5808 5807 5807 5808 5809 5809 5809 5809
5810 5811 5811 5812 5812 5813 5813 5814 5814 5813 5813 5813 5813 5813 5813 5814 5814 5814 5813 5812 5812 5812 5811 5810 5810 5809 5809 5808 5807 5806 5805 5804 5803 5803 5802 5801 5799 5798 5797 5796 5796 5794 5793 5792 5791 5791 5791 5791 5790 5789 5789 5788 5786 5785 5786 5786 5786 5788 5789 5790 5790 5792 5794 5795 5796 5796 5796 5797 5798 5798 5800 5801 5802 5803 5804 5805 5805 5806 5806 5806 5807 5807 5807 5807 5807
5807 5808 5809 5809 5810 5810 5811 5811 5811 5811 5811 5810 5810 5810 5811 5811 5811 5811 5810 5810 5809 5809 5809 5808 5807 5807 5806 5806 5805 5804 5802 5801 5801 5800 5799 5798 5797 5795 5794 5794 5794 5792 5791 5790 5789 5787 5787 5787 5787 5787 5786 5785 5783 5781 5781 5781 5781 5782 5786 5789 5790 5790 5792 5793 5793 5794 5794 5795 5795 5796 5797 5799 5800 5801 5802 5802 5803 5804 5804 5804 5805 5805 5805 5805 5805
5805 5806 5807 5807 5808 5808 5809 5809 5809 5808 5808 5808 5808 5808 5808 5809 5809 5809 5808 5807 5807 5807 5806 5805 5805 5804 5803 5803 5802 5801 5800 5799 5798 5798 5797 5796 5794 5792 5791 5791 5791 5791 5789 5787 5786 5785 5784 5784 5784 5784 5783 5782 5780 5778 5777 5777 5777 5778 5781 5785 5787 5787 5789 5790 5790 5791 5791 5792 5793 5794 5795 5796 5798 5799 5800 5801 5802 5802 5802 5803 5803 5803 5803 5803 5803
5803 5804 5805 5806 5806 5806 5807 5807 5806 5806 5806 5806 5806 5805 5806 5806 5806 5806 5806 5805 5804 5804 5803 5803 5802 5801 5800 5800 5799 5799 5798 5797 5796 5795 5794 5793 5791 5790 5789 5788 5788 5788 5786 5785 5784 5782 5781 5781 5781 5780 5780 5778 5776 5775 5775 5774 5773 5774 5777 5779 5782 5784 5786 5787 5788 5789 5789 5790 5791 5793 5793 5794 5796 5797 5798 5798 5799 5800 5801 5801 5802 5801 5801 5801 5802
5800 5802 5803 5803 5804 5804 5805 5804 5804 5804 5804 5804 5803 5803 5803 5804 5804 5804 5803 5803 5802 5801 5801 5800 5799 5798 5798 5797 5796 5796 5795 5794 5793 5792 5791 5790 5789 5787 5786 5786 5785 5784 5783 5782 5781 5780 5779 5778 5778 5778 5777 5774 5773 5773 5773 5773 5772 5772 5774 5776 5778 5780 5783 5784 5785 5787 5788 5788 5789 5790 5791 5792 5794 5795 5795 5796 5797 5798 5799 5799 5799 5800 5800 5799 5800
5798 5799 5801 5801 5801 5802 5802 5802 5801 5801 5801 5801 5801 5801 5801 5801 5801 5801 5800 5800 5799 5798 5798 5797 5796 5796 5795 5794 5794 5793 5792 5791 5790 5789 5788 5787 5786 5785 5783 5783 5781 5780 5779 5779 5778 5777 5776 5775 5775 5775 5775 5773 5771 5772 5772 5771 5771 5771 5772 5774 5776 5778 5780 5781 5781 5784 5785 5786 5786 5787 5788 5790 5791 5792 5793 5794 5795 5796 5797 5797 5798 5798 5798 5798 5798
5796 5797 5798 5799 5799 5800 5799 5799 5799 5799 5799 5799 5798 5799 5799 5799 5798 5798 5797 5797 5796 5796 5795 5794 5793 5793 5792 5792 5791 5790 5789 5788 5787 5786 5785 5784 5783 5781 5780 5779 5778 5776 5775 5775 5774 5774 5773 5773 5773 5772 5773 5772 5771 5771 5770 5769 5769 5769 5771 5773 5775 5776 5777 5777 5778 5781 5783 5784 5784 5785 5786 5788 5788 5789 5791 5791 5792 5793 5795 5795 5796 5796 5796 5796 5797
5794 5795 5796 5797 5797 5797 5797 5797 5796 5796 5796 5796 5796 5796 5796 5796 5795 5795 5795 5794 5793 5793 5792 5792 5791 5790 5789 5789 5788 5787 5786 5785 5784 5783 5782 5781 5780 5778 5776 5775 5774 5773 5772 5771 5771 5771 5770 5770 5770 5770 5770 5770 5770 5769 5769 5768 5767 5768 5769 5771 5772 5773 5774 5774 5775 5778 5780 5781 5783 5783 5784 5785 5786 5787 5788 5789 5790 5791 5792 5793 5794 5794 5795 5795 5795
5792 5793 5794 5795 5795 5795 5795 5795 5794 5794 5793 5793 5793 5793 5793 5793 5792 5792 5791 5791 5790 5790 5789 5788 5788 5787 5786 5786 5785 5784 5783 5782 5781 5780 5779 5778 5776 5774 5772 5771 5771 5770 5769 5768 5768 5767 5766 5766 5767 5767 5768 5768 5768 5768 5767 5766 5766 5767 5768 5769 5770 5771 5772 5772 5773 5775 5777 5779 5780 5780 5781 5782 5783 5784 5785 5786 5788 5789 5790 5791 5791 5792 5793 5793 5793
5789 5791 5792 5792 5792 5793 5793 5792 5792 5791 5791 5791 5791 5790 5790 5790 5789 5789 5788 5788 5787 5786 5786 5785 5784 5783 5782 5782 5782 5781 5780 5779 5778 5777 5775 5774 5772 5770 5768 5767 5767 5767 5766 5766 5765 5764 5763 5763 5763 5764 5765 5766 5766 5766 5765 5766 5765 5766 5767 5767 5769 5770 5770 5771 5771 5773 5775 5776 5776 5777 5778 5779 5780 5781 5783 5784 5785 5786 5787 5788 5789 5789 5790 5791 5791
5787 5788 5789 5789 5790 5790 5790 5790 5789 5789 5788 5788 5788 5788 5788 5787 5787 5786 5785 5785 5784 5783 5783 5782 5781 5780 5779 5779 5778 5777 5776 5775 5774 5773 5772 5770 5769 5767 5765 5764 5763 5763 5763 5764 5763 5761 5759 5759 5760 5761 5762 5763 5763 5763 5764 5764 5764 5764 5764 5765 5767 5767 5768 5769 5769 5771 5772 5772 5773 5775 5775 5776 5777 5779 5780 5781 5782 5783 5784 5785 5786 5786 5787 5788 5788
5784 5785 5786 5786 5787 5787 5787 5787 5787 5786 5786 5786 5785 5785 5785 5785 5784 5783 5782 5782 5781 5780 5780 5779 5778 5777 5776 5775 5775 5774 5773 5772 5771 5770 5768 5767 5766 5764 5762 5760 5759 5758 5758 5759 5759 5757 5755 5756 5757 5757 5758 5759 5760 5761 5761 5761 5761 5761 5761 5762 5763 5765 5765 5766 5766 5768 5769 5769 5770 5772 5773 5773 5774 5775 5777 5778 5779 5780 5781 5783 5783 5784 5784 5785 5786
5782 5782 5783 5784 5784 5784 5784 5784 5784 5784 5783 5783 5783 5783 5782 5782 5781 5780 5779 5779 5778 5777 5776 5776 5775 5774 5773 5772 5772 5771 5770 5769 5768 5767 5766 5764 5763 5761 5759 5757 5756 5755 5754 5754 5754 5753 5753 5753 5754 5754 5755 5756 5756 5757 5758 5758 5758 5759 5758 5758 5759 5761 5762 5762 5763 5764 5766 5767 5767 5768 5770 5770 5771 5772 5774 5775 5776 5777 5778 5779 5780 5781 5782 5783 5783
5779 5780 5780 5780 5781 5781 5781 5781 5781 5780 5780 5780 5780 5779 5779 5779 5778 5777 5777 5776 5775 5774 5773 5773 5772 5771 5771 5770 5769 5768 5767 5766 5765 5764 5763 5761 5760 5758 5757 5755 5753 5751 5751 5751 5750 5750 5750 5750 5750 5751 5751 5752 5753 5753 5754 5755 5756 5756 5756 5756 5756 5757 5759 5760 5760 5761 5763 5764 5765 5766 5767 5767 5768 5769 5771 5773 5773 5774 5775 5776 5777 5778 5780 5780 5780
5776 5776 5777 5777 5777 5778 5778 5777 5777 5777 5777 5777 5776 5776 5776 5775 5775 5774 5774 5773 5772 5771 5770 5770 5769 5768 5767 5766 5766 5765 5764 5763 5762 5761 5760 5758 5757 5755 5754 5752 5750 5748 5747 5748 5747 5746 5746 5747 5747 5748 5748 5748 5749 5749 5750 5751 5752 5753 5753 5753 5753 5754 5756 5756 5757 5758 5759 5760 5761 5762 5763 5764 5766 5767 5768 5769 5770 5771 5772 5773 5774 5775 5777 5778 5777
5773 5773 5773 5773 5773 5774 5773 5773 5773 5774 5773 5773 5772 5772 5772 5772 5771 5771 5770 5770 5769 5768 5768 5767 5766 5765 5764 5764 5763 5762 5761 5760 5759 5758 5757 5755 5754 5752 5751 5749 5748 5745 5744 5744 5743 5742 5742 5743 5743 5744 5744 5744 5745 5746 5747 5747 5748 5749 5750 5750 5750 5751 5752 5753 5754 5754 5755 5756 5757 5758 5759 5761 5762 5763 5763 5765 5767 5767 5769 5770 5771 5772 5773 5774 5775
5769 5770 5770 5770 5770 5770 5769 5769 5770 5770 5769 5769 5769 5768 5768 5768 5768 5768 5767 5767 5766 5766 5765 5765 5764 5763 5762 5761 5760 5759 5758 5757 5756 5755 5753 5752 5751 5750 5748 5747 5745 5743 5741 5740 5739 5738 5738 5738 5738 5739 5739 5739 5740 5741 5743 5744 5745 5745 5746 5747 5747 5748 5748 5749 5750 5751 5751 5751 5753 5754 5755 5757 5757 5758 5759 5762 5763 5764 5765 5767 5768 5769 5770 5771 5771
5766 5766 5766 5766 5766 5766 5766 5766 5766 5766 5765 5765 5765 5765 5765 5765 5765 5764 5764 5764 5763 5762 5762 5762 5761 5760 5759 5758 5757 5756 5755 5754 5753 5751 5750 5749 5748 5747 5746 5744 5743 5741 5739 5736 5735 5734 5734 5734 5735 5735 5735 5736 5737 5737 5738 5740 5740 5742 5742 5742 5743 5745 5745 5745 5745 5746 5747 5747 5749 5750 5751 5753 5753 5754 5756 5758 5759 5761 5761 5763 5765 5766 5767 5768 5768
5762 5763 5762 5762 5762 5762 5762 5762 5762 5762 5761 5761 5761 5761 5762 5762 5761 5761 5761 5760 5760 5759 5759 5758 5758 5757 5756 5755 5754 5753 5752 5750 5749 5748 5747 5746 5744 5743 5742 5742 5740 5739 5736 5734 5731 5730 5730 5731 5731 5731 5731 5733 5734 5734 5733 5734 5736 5738 5738 5738 5739 5741 5742 5742 5742 5743 5744 5744 5745 5746 5748 5749 5749 5751 5752 5754 5755 5757 5758 5759 5761 5762 5763 5764 5764
5758 5758 5758 5758 5758 5758 5758 5758 5758 5758 5758 5758 5758 5758 5758 5758 5758 5758 5757 5757 5756 5756 5756 5755 5755 5754 5753 5752 5751 5750 5748 5747 5746 5745 5743 5742 5741 5740 5739 5738 5737 5736 5734 5732 5729 5727 5726 5727 5727 5727 5727 5729 5729 5729 5729 5729 5731 5733 5734 5734 5736 5737 5738 5739 5738 5739 5740 5740 5741 5742 5744 5745 5746 5748 5749 5750 5751 5753 5754 5755 5757 5759 5760 5760 5761
5754 5754 5754 5755 5755 5755 5755 5755 5755 5754 5755 5755 5755 5755 5755 5755 5755 5755 5754 5754 5753 5753 5752 5752 5752 5751 5750 5749 5748 5746 5745 5744 5742 5741 5740 5739 5738 5737 5735 5735 5734 5733 5731 5729 5727 5725 5723 5723 5723 5722 5722 5724 5725 5725 5725 5726 5726 5727 5729 5730 5731 5733 5735 5735 5735 5735 5735 5736 5736 5738 5739 5740 5743 5745 5745 5746 5748 5749 5751 5752 5753 5756 5757 5756 5757
5750 5750 5751 5751 5751 5751 5751 5751 5751 5751 5751 5751 5752 5752 5752 5752 5752 5751 5751 5750 5750 5750 5749 5749 5748 5747 5747 5746 5744 5743 5742 5741 5740 5738 5737 5736 5734 5733 5732 5731 5731 5730 5728 5726 5725 5723 5721 5719 5718 5717 5717 5719 5720 5720 5720 5721 5722 5723 5724 5724 5726 5728 5730 5731 5731 5731 5732 5732 5732 5733 5735 5736 5738 5741 5742 5743 5744 5745 5746 5748 5749 5751 5752 5751 5752
5746 5747 5747 5747 5747 5747 5748 5748 5748 5748 5748 5748 5748 5748 5748 5748 5748 5748 5747 5747 5747 5746 5746 5745 5744 5744 5743 5742 5741 5740 5739 5738 5737 5735 5734 5732 5731 5730 5728 5727 5727 5726 5725 5724 5722 5720 5719 5717 5715 5714 5714 5715 5715 5715 5716 5717 5717 5719 5720 5720 5721 5723 5725 5726 5726 5727 5728 5728 5727 5728 5730 5732 5734 5736 5737 5737 5738 5739 5741 5742 5744 5746 5747 5747 5748
5743 5743 5743 5743 5744 5744 5744 5744 5744 5744 5744 5745 5745 5745 5745 5745 5744 5744 5743 5743 5743 5742 5742 5741 5741 5740 5739 5738 5737 5736 5735 5734 5733 5732 5731 5729 5728 5727 5725 5724 5723 5722 5722 5721 5719 5718 5716 5715 5713 5712 5712 5712 5712 5711 5712 5713 5713 5714 5715 5715 5716 5717 5718 5720 5722 5723 5724 5724 5723 5723 5724 5726 5729 5730 5731 5732 5733 5736 5737 5738 5739 5741 5742 5743 5744
5739 5740 5740 5740 5740 5741 5741 5741 5741 5741 5741 5741 5741 5741 5741 5741 5740 5740 5740 5739 5739 5738 5738 5737 5737 5736 5735 5734 5733 5732 5731 5730 5729 5728 5727 5726 5725 5723 5722 5721 5719 5718 5718 5717 5716 5715 5713 5713 5711 5710 5710 5710 5709 5708 5708 5709 5709 5709 5711 5711 5711 5711 5712 5714 5716 5718 5719 5719 5719 5718 5720 5722 5723 5725 5726 5727 5729 5731 5733 5734 5735 5736 5738 5739 5739
5736 5737 5737 5737 5737 5737 5737 5737 5737 5737 5737 5737 5737 5737 5737 5737 5736 5736 5735 5735 5735 5734 5734 5733 5732 5731 5731 5730 5729 5728 5727 5726 5725 5724 5723 5722 5721 5720 5719 5717 5716 5714 5714 5713 5712 5711 5710 5710 5709 5708 5707 5707 5706 5706 5706 5706 5705 5705 5706 5707 5708 5708 5709 5709 5711 5713 5714 5714 5715 5715 5716 5718 5719 5720 5721 5723 5724 5727 5728 5730 5731 5732 5733 5734 5735
5733 5733 5734 5734 5734 5734 5734 5734 5734 5734 5734 5733 5733 5733 5733 5732 5732 5731 5731 5730 5730 5729 5729 5728 5727 5727 5726 5725 5724 5724 5723 5722 5721 5720 5719 5718 5717 5716 5715 5714 5712 5711 5710 5709 5709 5708 5707 5706 5705 5705 5704 5704 5703 5703 5704 5703 5701 5701 5702 5703 5703 5705 5705 5705 5705 5707 5708 5710 5711 5711 5712 5714 5715 5715 5717 5718 5720 5722 5723 5725 5726 5727 5728 5729 5730
5730 5730 5730 5731 5730 5730 5730 5731 5731 5730 5730 5730 5729 5729 5729 5728 5728 5727 5726 5726 5725 5724 5724 5723 5722 5722 5721 5720 5720 5719 5718 5718 5717 5716 5715 5714 5713 5712 5711 5710 5709 5707 5706 5705 5705 5704 5703 5702 5702 5701 5701 5701 5700 5700 5700 5700 5699 5698 5699 5699 5699 5700 5700 5700 5700 5701 5704 5706 5706 5706 5708 5709 5710 5710 5713 5715 5715 5716 5718 5720 5721 5722 5723 5724 5726
5727 5727 5727 5727 5727 5727 5727 5727 5727 5727 5726 5726 5726 5725 5725 5724 5724 5723 5722 5722 5721 5720 5719 5718 5717 5717 5716 5715 5715 5714 5714 5713 5712 5711 5710 5709 5708 5707 5706 5706 5705 5704 5703 5702 5701 5700 5699 5699 5698 5697 5697 5697 5697 5697 5697 5696 5695 5695 5696 5696 5696 5695 5695 5696 5696 5697 5700 5701 5701 5702 5703 5705 5705 5707 5710 5711 5710 5711 5713 5714 5716 5717 5719 5720 5720
5724 5724 5724 5724 5724 5724 5724 5723 5723 5723 5722 5722 5721 5721 5721 5720 5720 5719 5718 5717 5716 5715 5714 5713 5712 5711 5711 5710 5709 5709 5708 5708 5707 5706 5706 5705 5704 5703 5702 5701 5700 5699 5698 5698 5697 5696 5695 5694 5694 5693 5693 5693 5693 5693 5693 5693 5692 5692 5692 5692 5692 5692 5692 5693 5693 5694 5695 5696 5696 5698 5699 5700 5702 5703 5704 5704 5704 5705 5707 5710 5712 5712 5713 5714 5715
5720 5720 5721 5721 5721 5720 5720 5720 5719 5719 5718 5718 5717 5717 5717 5716 5715 5714 5714 5713 5712 5711 5709 5708 5707 5706 5705 5704 5704 5703 5702 5702 5701 5701 5700 5699 5699 5698 5698 5697 5695 5695 5694 5693 5692 5692 5691 5690 5690 5689 5689 5689 5689 5689 5689 5689 5688 5688 5688 5688 5688 5688 5688 5689 5690 5690 5690 5690 5692 5694 5694 5696 5698 5698 5697 5699 5700 5700 5702 5706 5706 5705 5707 5709 5709
5717 5717 5717 5717 5717 5717 5717 5716 5716 5715 5715 5714 5714 5713 5712 5712 5711 5710 5709 5708 5707 5706 5704 5703 5702 5701 5700 5699 5698 5697 5696 5696 5695 5694 5694 5694 5693 5692 5692 5692 5691 5690 5689 5689 5688 5687 5686 5686 5686 5685 5685 5684 5684 5684 5684 5684 5684 5684 5684 5684 5684 5683 5683 5685 5686 5685 5685 5686 5687 5688 5689 5692 5692 5692 5693 5696 5697 5696 5699 5701 5700 5699 5702 5704 5704
5713 5713 5713 5713 5713 5713 5713 5712 5711 5711 5711 5710 5709 5709 5708 5707 5706 5705 5704 5703 5702 5700 5699 5698 5697 5695 5694 5693 5692 5691 5690 5689 5689 5688 5688 5687 5687 5686 5686 5686 5685 5685 5684 5683 5683 5682 5681 5681 5681 5681 5680 5680 5679 5679 5679 5679 5679 5680 5680 5680 5679 5678 5678 5680 5681 5681 5681 5681 5682 5683 5685 5687 5687 5687 5689 5690 5691 5692 5694 5694 5694 5694 5697 5699 5699
5709 5709 5709 5709 5709 5709 5708 5708 5707 5707 5706 5706 5705 5704 5703 5702 5701 5700 5699 5698 5696 5695 5694 5693 5691 5690 5689 5687 5686 5685 5684 5683 5682 5681 5681 5680 5680 5680 5679 5679 5679 5678 5678 5677 5677 5677 5676 5676 5675 5675 5675 5675 5674 5674 5674 5674 5675 5675 5675 5675 5675 5674 5673 5675 5676 5675 5676 5676 5677 5677 5680 5681 5681 5682 5684 5684 5685 5686 5687 5688 5688 5690 5693 5694 5694
5705 5705 5705 5705 5705 5704 5704 5704 5703 5703 5702 5702 5701 5700 5699 5698 5696 5695 5694 5692 5691 5690 5689 5687 5686 5685 5683 5682 5680 5679 5678 5677 5676 5674 5674 5673 5672 5672 5672 5671 5671 5671 5671 5671 5670 5670 5670 5670 5670 5669 5670 5670 5669 5669 5669 5669 5669 5670 5670 5670 5670 5669 5669 5669 5669 5669 5670 5671 5671 5672 5674 5676 5676 5676 5677 5678 5680 5681 5682 5682 5683 5685 5687 5687 5688
5701 5701 5701 5701 5701 5701 5700 5700 5699 5699 5698 5698 5697 5696 5694 5693 5692 5690 5689 5687 5686 5684 5683 5682 5680 5679 5677 5676 5674 5673 5671 5670 5669 5667 5666 5665 5664 5664 5664 5663 5663 5663 5664 5664 5664 5663 5663 5663 5663 5663 5664 5664 5664 5664 5663 5663 5664 5664 5665 5665 5664 5664 5663 5664 5664 5664 5665 5666 5666 5666 5668 5670 5671 5671 5671 5673 5674 5675 5676 5677 5677 5679 5681 5681 5682
5698 5698 5698 5697 5697 5697 5697 5697 5696 5695 5695 5694 5693 5691 5690 5689 5688 5686 5684 5682 5681 5679 5677 5676 5675 5673 5671 5669 5668 5666 5665 5663 5662 5661 5659 5658 5657 5656 5655 5655 5655 5655 5655 5656 5656 5656 5656 5656 5656 5657 5657 5657 5657 5658 5658 5658 5658 5658 5659 5659 5659 5658 5658 5658 5659 5660 5660 5661 5661 5661 5662 5664 5666 5666 5666 5667 5668 5669 5670 5671 5672 5673 5675 5676 5677
5694 5694 5694 5694 5694 5694 5694 5693 5693 5692 5691 5690 5689 5688 5686 5685 5683 5681 5679 5678 5676 5673 5672 5670 5668 5666 5664 5663 5661 5660 5658 5656 5655 5653 5652 5651 5650 5649 5648 5647 5647 5646 5647 5647 5648 5649 5649 5649 5649 5650 5650 5650 5651 5651 5651 5652 5652 5652 5653 5653 5653 5653 5652 5652 5653 5654 5655 5656 5656 5656 5657 5658 5660 5660 5660 5661 5662 5663 5664 5665 5666 5668 5669 5670 5671
5691 5691 5691 5691 5691 5691 5690 5690 5689 5689 5687 5686 5685 5684 5682 5681 5679 5677 5675 5673 5671 5668 5666 5664 5662 5660 5658 5656 5654 5652 5651 5649 5647 5646 5644 5643 5642 5641 5641 5640 5639 5638 5638 5638 5639 5640 5641 5642 5642 5642 5643 5643 5644 5644 5645 5645 5645 5646 5646 5646 5646 5647 5646 5646 5647 5648 5650 5650 5651 5651 5652 5653 5655 5655 5655 5655 5656 5657 5658 5660 5661 5662 5663 5664 5666
5689 5689 5689 5688 5688 5688 5687 5687 5686 5685 5684 5683 5682 5680 5678 5677 5675 5673 5671 5668 5666 5664 5661 5658 5656 5654 5651 5649 5647 5644 5643 5641 5639 5638 5636 5635 5634 5633 5633 5632 5632 5631 5630 5630 5630 5631 5632 5633 5634 5635 5635 5636 5637 5637 5638 5638 5639 5640 5640 5640 5640 5641 5641 5640 5640 5642 5643 5645 5645 5646 5647 5648 5649 5649 5649 5650 5650 5651 5653 5654 5655 5656 5658 5659 5660
5686 5686 5686 5686 5685 5685 5684 5684 5683 5682 5681 5680 5679 5677 5675 5673 5672 5669 5667 5664 5662 5660 5657 5654 5651 5648 5645 5642 5639 5637 5635 5632 5631 5630 5628 5626 5625 5625 5624 5624 5623 5623 5622 5622 5622 5623 5624 5624 5626 5627 5628 5628 5629 5630 5631 5632 5633 5633 5633 5633 5633 5634 5635 5635 5635 5636 5637 5638 5639 5640 5641 5642 5643 5643 5644 5645 5646 5647 5648 5649 5650 5651 5653 5654 5655
5683 5683 5683 5683 5683 5682 5682 5681 5680 5679 5678 5677 5675 5674 5672 5671 5669 5667 5664 5661 5659 5656 5653 5650 5647 5644 5640 5637 5633 5630 5628 5625 5623 5621 5620 5618 5617 5616 5616 5615 5615 5614 5614 5614 5614 5614 5615 5616 5618 5619 5620 5621 5622 5623 5624 5625 5626 5627 5627 5627 5627 5627 5629 5629 5630 5631 5632 5632 5633 5634 5635 5635 5636 5637 5638 5639 5640 5642 5643 5644 5645 5646 5648 5649 5650
5681 5681 5681 5681 5680 5680 5679 5679 5678 5677 5675 5674 5673 5671 5670 5668 5666 5664 5662 5659 5656 5654 5651 5648 5644 5641 5637 5633 5629 5626 5623 5620 5617 5615 5613 5611 5610 5608 5607 5607 5606 5606 5606 5606 5606 5607 5607 5608 5609 5611 5612 5613 5614 5615 5616 5617 5618 5620 5621 5621 5621 5622 5623 5624 5624 5625 5626 5627 5628 5628 5629 5629 5630 5631 5632 5633 5635 5637 5638 5639 5640 5641 5642 5643 5645
5679 5679 5679 5679 5678 5678 5677 5677 5676 5675 5673 5672 5671 5669 5668 5666 5664 5662 5659 5657 5654 5652 5649 5646 5642 5639 5635 5631 5627 5623 5620 5616 5613 5610 5608 5606 5604 5602 5601 5600 5599 5598 5598 5598 5599 5599 5599 5600 5601 5602 5604 5606 5607 5608 5609 5610 5611 5612 5613 5614 5615 5616 5617 5617 5618 5619 5620 5621 5622 5623 5623 5624 5625 5626 5627 5628 5629 5631 5633 5634 5635 5636 5636 5637 5638
5678 5677 5677 5677 5677 5677 5676 5675 5674 5673 5671 5670 5669 5667 5666 5664 5662 5660 5658 5655 5652 5650 5647 5644 5641 5637 5634 5630 5625 5621 5617 5614 5611 5607 5604 5601 5599 5597 5596 5594 5593 5591 5591 5591 5592 5592 5592 5592 5593 5594 5596 5597 5599 5600 5601 5602 5603 5605 5606 5607 5608 5609 5610 5611 5612 5613 5614 5615 5616 5617 5618 5618 5619 5620 5621 5622 5624 5625 5627 5628 5629 5630 5630 5631 5632